Time,TemperatureF,DewpointF,PressureIn,WindDirection,WindDirectionDegrees,WindSpeedMPH,WindSpeedGustMPH,Humidity,HourlyPrecipIn,Conditions,Clouds,dailyrainin,SoftwareType,DateUTC
2013-07-29 00:02:00,57.0,-99.9,29.97,WNW,300,0.0,0.0,-999,-99.99,,,-99.99,,2013-07-29 05:02:00,
2013-07-29 00:12:00,57.0,-99.9,29.98,WNW,300,0.0,0.0,-999,-99.99,,,-99.99,,2013-07-29 05:12:00,
2013-07-29 00:22:00,57.0,-99.9,29.98,WNW,300,0.0,1.0,-999,-99.99,,,-99.99,,2013-07-29 05:22:00,
2013-07-29 00:32:00,57.0,-99.9,29.98,WNW,300,0.0,0.0,-999,-99.99,,,-99.99,,2013-07-29 05:32:00,
2013-07-29 00:43:00,58.0,-99.9,29.98,WNW,300,0.0,0.0,-999,-99.99,,,-99.99,,2013-07-29 05:43:00,
2013-07-29 00:53:00,58.0,-99.9,29.98,WNW,300,0.0,0.0,-999,-99.99,,,-99.99,,2013-07-29 05:53:00,
2013-07-29 01:02:00,58.0,-99.9,29.98,WNW,300,0.0,0.0,-999,-99.99,,,-99.99,,2013-07-29 06:02:00,
2013-07-29 01:12:00,58.0,-99.9,29.98,WNW,300,0.0,0.0,-999,-99.99,,,-99.99,,2013-07-29 06:12:00,
2013-07-29 01:22:00,58.0,-99.9,29.98,WNW,300,0.0,0.0,-999,-99.99,,,-99.99,,2013-07-29 06:22:00,
2013-07-29 01:33:00,58.0,-99.9,29.98,WNW,300,0.0,0.0,-999,-99.99,,,-99.99,,2013-07-29 06:33:00,
2013-07-29 01:43:00,58.0,-99.9,29.98,WNW,300,0.0,0.0,-999,-99.99,,,-99.99,,2013-07-29 06:43:00,
2013-07-29 01:52:00,58.0,-99.9,29.98,WNW,300,0.0,1.0,-999,-99.99,,,-99.99,,2013-07-29 06:52:00,
2013-07-29 02:03:00,58.0,-99.9,29.98,WNW,300,0.0,0.0,-999,-99.99,,,-99.99,,2013-07-29 07:03:00,
2013-07-29 02:13:00,59.0,-99.9,29.98,WNW,300,0.0,0.0,-999,-99.99,,,-99.99,,2013-07-29 07:13:00,
2013-07-29 02:23:00,59.0,-99.9,29.98,WNW,300,0.0,0.0,-999,-99.99,,,-99.99,,2013-07-29 07:23:00,
2013-07-29 02:33:00,60.0,-99.9,29.98,WNW,300,0.0,1.0,-999,-99.99,,,-99.99,,2013-07-29 07:33:00,
2013-07-29 02:43:00,61.0,-99.9,29.98,WNW,300,0.0,1.0,-999,-99.99,,,-99.99,,2013-07-29 07:43:00,
2013-07-29 02:53:00,59.0,-99.9,29.98,NW,305,0.0,1.0,-999,-99.99,,,-99.99,,2013-07-29 07:53:00,
2013-07-29 03:02:00,60.0,-99.9,29.98,NW,318,0.0,1.0,-999,-99.99,,,-99.99,,2013-07-29 08:02:00,
2013-07-29 03:12:00,61.0,-99.9,29.98,WNW,300,0.0,1.0,-999,-99.99,,,-99.99,,2013-07-29 08:12:00,
2013-07-29 03:22:00,62.0,-99.9,29.98,WNW,300,0.0,3.0,-999,-99.99,,,-99.99,,2013-07-29 08:22:00,
2013-07-29 03:33:00,61.0,-99.9,29.98,WNW,300,0.0,1.0,-999,-99.99,,,-99.99,,2013-07-29 08:33:00,
2013-07-29 03:42:00,62.0,-99.9,29.98,WNW,299,0.0,4.0,-999,-99.99,,,-99.99,,2013-07-29 08:42:00,
2013-07-29 03:52:00,60.0,-99.9,29.98,WNW,299,0.0,1.0,-999,-99.99,,,-99.99,,2013-07-29 08:52:00,
2013-07-29 04:02:00,59.0,-99.9,29.98,WNW,299,0.0,1.0,-999,-99.99,,,-99.99,,2013-07-29 09:02:00,
2013-07-29 04:12:00,57.0,-99.9,29.98,WNW,299,0.0,1.0,-999,-99.99,,,-99.99,,2013-07-29 09:12:00,
2013-07-29 04:22:00,57.0,-99.9,29.99,WNW,299,0.0,2.0,-999,-99.99,,,-99.99,,2013-07-29 09:22:00,
2013-07-29 04:33:00,57.0,-99.9,29.99,WNW,299,0.0,0.0,-999,-99.99,,,-99.99,,2013-07-29 09:33:00,
2013-07-29 04:43:00,56.0,-99.9,29.99,WNW,299,0.0,2.0,-999,-99.99,,,-99.99,,2013-07-29 09:43:00,
2013-07-29 04:53:00,56.0,-99.9,29.99,WNW,299,0.0,0.0,-999,-99.99,,,-99.99,,2013-07-29 09:53:00,
2013-07-29 05:15:00,56.0,-99.9,30.01,WNW,296,0.0,2.0,-999,-99.99,,,-99.99,,2013-07-29 10:15:00,
2013-07-29 05:40:00,56.0,-99.9,30.01,West,275,0.0,0.0,-999,-99.99,,,-99.99,,2013-07-29 10:40:00,
2013-07-29 05:50:00,56.0,-99.9,30.01,West,275,0.0,0.0,-999,-99.99,,,-99.99,,2013-07-29 10:50:00,
2013-07-29 05:56:00,56.0,-99.9,30.01,West,275,0.0,0.0,-999,-99.99,,,-99.99,,2013-07-29 10:56:00,
2013-07-29 06:17:00,56.0,-99.9,30.02,West,275,0.0,0.0,-999,-99.99,,,-99.99,,2013-07-29 11:17:00,
2013-07-29 06:26:00,56.0,-99.9,30.02,West,275,0.0,0.0,-999,-99.99,,,-99.99,,2013-07-29 11:26:00,
2013-07-29 06:38:00,56.0,-99.9,30.03,West,275,0.0,0.0,-999,-99.99,,,-99.99,,2013-07-29 11:38:00,
2013-07-29 06:49:00,56.0,-99.9,30.03,West,275,0.0,0.0,-999,-99.99,,,-99.99,,2013-07-29 11:49:00,
2013-07-29 07:11:00,56.0,-99.9,30.03,West,275,0.0,0.0,-999,-99.99,,,-99.99,,2013-07-29 12:11:00,
2013-07-29 07:14:00,56.0,-99.9,30.04,West,275,0.0,0.0,-999,-99.99,,,-99.99,,2013-07-29 12:14:00,
2013-07-29 07:18:00,56.0,-99.9,30.04,West,275,0.0,0.0,-999,-99.99,,,-99.99,,2013-07-29 12:18:00,
2013-07-29 07:28:00,56.0,-99.9,30.04,West,275,0.0,0.0,-999,-99.99,,,-99.99,,2013-07-29 12:28:00,
2013-07-29 07:37:00,56.0,-99.9,30.04,West,275,0.0,0.0,-999,-99.99,,,-99.99,,2013-07-29 12:37:00,
2013-07-29 07:49:00,56.0,-99.9,30.04,West,275,0.0,0.0,-999,-99.99,,,-99.99,,2013-07-29 12:49:00,
2013-07-29 07:58:00,56.0,-99.9,30.04,West,275,0.0,0.0,-999,-99.99,,,-99.99,,2013-07-29 12:58:00,